Home > Weather > St. Croix Falls > Past weeks

Flag for USA Past Weather in St. Croix Falls, Wisconsin, USA — Yesterday and Last 2 Weeks

Now
72 °F

Clear.


Feels Like: 66 °F
Forecast: 62 / 82 °F
Wind: 6 mph from Southwest

Location: L O Simenstad Municipal Airport

Current Time: Jun 25, 2016 at 11:51:04 PM

Latest Report: Jun 25, 2016 at 11:15 PM


Visibility: 10 mi

Pressure: 29.87 "Hg

Humidity: 100%

Dew Point: 72 °F

Location of St. Croix FallsLocation

Past Weather in St. Croix Falls — Graph

°F

St. Croix Falls Temperature Yesterday

Maximum temperature yesterday: 80 °F (at 5:55 PM)
Minimum temperature yesterday: 55 °F (at 4:15 AM)
Average temperature yesterday: 68 °F

High & Low Weather Summary for the Past Weeks

 TemperatureHumidityPressure
High93 °F (Jun 25, 4:15 PM)100% (Jun 10, 10:15 PM)30.23 "Hg (Jun 10, 10:15 PM)
Low51 °F (Jun 21, 5:15 AM)27% (Jun 11, 5:15 PM)29.61 "Hg (Jun 14, 9:35 PM)
Average71 °F74%29.98 "Hg
* Reported Jun 10 10:15 PM — Jun 25 10:35 PM, St. Croix Falls, Weather by CustomWeather, © 2016

Note: Actual official high and low records may vary slightly from our data, if they occured in-between our weather recording intervals... More about our weather records

Advertising

St. Croix Falls Weather History for the Previous 24 Hours

Scroll right to see more
 ConditionsComfort  
Time TempWeatherWind HumidityBarometerVisibility
10:35 PM
Sat, Jun 25
73 °FPassing clouds.6 mph100%29.87 "Hg10 mi
10:15 PM74 °FClear.5 mph100%29.86 "Hg10 mi
9:55 PM75 °FSunny.7 mph100%29.85 "Hg10 mi
9:35 PM75 °FSunny.3 mph100%29.84 "Hg10 mi
9:15 PM76 °FSunny.5 mph100%29.83 "Hg10 mi
8:55 PM76 °FSunny.6 mph100%29.81 "Hg10 mi
8:35 PM76 °FScattered clouds.6 mph100%29.80 "Hg10 mi
8:15 PM77 °FPartly sunny.5 mph100%29.81 "Hg10 mi
7:55 PM77 °FCloudy.5 mph100%29.79 "Hg10 mi
7:15 PM75 °FRain. Cloudy.10 mph99%29.77 "Hg3 mi
6:55 PM80 °FOvercast.9 mph77%29.76 "Hg10 mi
6:15 PM89 °FMostly cloudy.17 mph51%29.72 "Hg10 mi
5:55 PM89 °FPartly sunny.21 mph49%29.69 "Hg10 mi
5:35 PM90 °FMostly cloudy.20 mph51%29.71 "Hg10 mi
5:15 PM90 °FBroken clouds.18 mph50%29.71 "Hg10 mi
4:55 PM91 °FPartly sunny.16 mph50%29.71 "Hg10 mi
4:35 PM92 °FPartly sunny.22 mph48%29.71 "Hg10 mi
4:15 PM93 °FScattered clouds.29 mph48%29.71 "Hg10 mi
3:55 PM92 °FScattered clouds.22 mph50%29.72 "Hg10 mi
3:15 PM92 °FSunny.22 mph51%29.75 "Hg10 mi
2:55 PM92 °FSunny.21 mph53%29.77 "Hg10 mi
2:35 PM91 °FSunny.18 mph53%29.78 "Hg10 mi
2:15 PM91 °FScattered clouds.17 mph57%29.79 "Hg10 mi
1:55 PM90 °FScattered clouds.20 mph58%29.80 "Hg10 mi
1:15 PM89 °FScattered clouds.17 mph59%29.82 "Hg10 mi
12:55 PM87 °FPartly sunny.17 mph62%29.82 "Hg10 mi
12:35 PM87 °FOvercast.21 mph62%29.83 "Hg10 mi
12:15 PM85 °FPartly sunny.17 mph64%29.83 "Hg10 mi
11:55 AM85 °FScattered clouds.16 mph64%29.83 "Hg10 mi
11:35 AM84 °FScattered clouds.15 mph65%29.83 "Hg10 mi
11:15 AM85 °FSunny.14 mph65%29.83 "Hg10 mi
10:55 AM84 °FSunny.20 mph65%29.81 "Hg10 mi
10:35 AM83 °FSunny.17 mph66%29.81 "Hg10 mi
10:15 AM82 °FSunny.18 mph67%29.83 "Hg10 mi
9:55 AM82 °FScattered clouds.18 mph69%29.84 "Hg10 mi
9:35 AM81 °FScattered clouds.17 mph70%29.85 "Hg10 mi
9:15 AM80 °FScattered clouds.14 mph71%29.86 "Hg10 mi
8:55 AM78 °FBroken clouds.12 mph73%29.86 "Hg10 mi
8:15 AM76 °FSunny.12 mph76%29.87 "Hg10 mi
7:55 AM75 °FSunny.13 mph78%29.87 "Hg10 mi
7:15 AM73 °FSunny.13 mph78%29.88 "Hg10 mi
6:55 AM73 °FSunny.13 mph79%29.89 "Hg10 mi
6:35 AM72 °FSunny.10 mph80%29.90 "Hg10 mi
6:15 AM72 °FClear.8 mph80%29.91 "Hg10 mi
5:55 AM71 °FClear.8 mph80%29.90 "Hg10 mi
5:35 AM72 °FClear.6 mph79%29.91 "Hg10 mi
5:15 AM72 °FClear.7 mph78%29.90 "Hg10 mi
4:55 AM72 °FPassing clouds.8 mph78%29.90 "Hg10 mi
4:35 AM72 °FPassing clouds.7 mph78%29.90 "Hg10 mi
4:15 AM72 °FPassing clouds.8 mph76%29.91 "Hg10 mi
3:55 AM72 °FPassing clouds.10 mph77%29.91 "Hg10 mi
3:35 AM72 °FPartly cloudy.8 mph76%29.91 "Hg10 mi
3:15 AM72 °FOvercast.9 mph75%29.91 "Hg10 mi
2:55 AM72 °FOvercast.12 mph74%29.91 "Hg10 mi
2:35 AM72 °FOvercast.10 mph74%29.92 "Hg10 mi
2:15 AM72 °FOvercast.12 mph74%29.93 "Hg10 mi
1:55 AM72 °FMostly cloudy.9 mph75%29.94 "Hg10 mi
1:15 AM72 °FOvercast.9 mph74%29.95 "Hg10 mi
12:55 AM71 °FPassing clouds.7 mph75%29.96 "Hg10 mi
12:35 AM71 °FPassing clouds.7 mph76%29.97 "Hg10 mi
12:15 AM71 °FClear.8 mph75%29.97 "Hg10 mi
11:55 PM
Fri, Jun 24
71 °FClear.8 mph76%29.98 "Hg10 mi
11:15 PM69 °FClear.7 mph82%29.98 "Hg10 mi
Weather by CustomWeather, © 2016

See weather overviewHow to use our weather pages